EZY31EG EGKK-LXGB

Flight info

Callsign EZY31EG
Flight time 2h 30m
Altitude 34000
Route NOVMA1X NOVMA L620 SAM M195 MARUK N621 LELNA/N0447F390 DCT NOVAN DCT DELOG DCT CRISA DCT VULPE DCT MAR N864 PIMOS DCT
Aircraft A32N/M-V/N

Departure

Time 2026-04-15 10:31
Airport London Gatwick Airport (EGKK)

Arrival

Time 2026-04-15 13:01
Airport Gibraltar Airport (LXGB)
Time Latitude Longitude Altitude Speed Heading
2026-04-15 10:14 51.15505 -0.16846 204 ft 0 kts 348°
2026-04-15 10:24 51.15495 -0.16843 207 ft 3 kts 352°
2026-04-15 10:24 51.15475 -0.16841 204 ft 3 kts
2026-04-15 10:24 51.15456 -0.16848 206 ft 3 kts 36°
2026-04-15 10:25 51.15445 -0.16866 213 ft 1 kts 76°
2026-04-15 10:25 51.15445 -0.16869 213 ft 1 kts 78°
2026-04-15 10:28 51.15450 -0.16831 216 ft 9 kts 78°
2026-04-15 10:28 51.15426 -0.16734 209 ft 11 kts 153°
2026-04-15 10:28 51.15348 -0.16691 209 ft 12 kts 163°
2026-04-15 10:28 51.15261 -0.16655 209 ft 13 kts 169°
2026-04-15 10:29 51.15251 -0.16652 205 ft 0 kts 169°
2026-04-15 10:29 51.15250 -0.16652 205 ft 0 kts 169°
2026-04-15 10:29 51.15223 -0.16644 215 ft 8 kts 169°
2026-04-15 10:30 51.15157 -0.16636 205 ft 10 kts 193°
2026-04-15 10:30 51.15144 -0.16665 214 ft 0 kts 250°
2026-04-15 10:30 51.15142 -0.16676 205 ft 10 kts 251°
2026-04-15 10:30 51.15075 -0.17127 213 ft 72 kts 257°
2026-04-15 10:31 51.14926 -0.18178 216 ft 119 kts 258°
2026-04-15 10:31 51.14719 -0.19651 227 ft 151 kts 253°
2026-04-15 10:31 51.14515 -0.21188 840 ft 135 kts 252°
2026-04-15 10:31 51.14339 -0.22734 1169 ft 148 kts 256°
2026-04-15 10:32 51.14204 -0.24433 1435 ft 163 kts 261°
2026-04-15 10:32 51.14088 -0.26213 2048 ft 160 kts 258°
2026-04-15 10:32 51.14023 -0.27997 2650 ft 165 kts 263°
2026-04-15 10:32 51.13772 -0.29866 2982 ft 182 kts 247°
2026-04-15 10:33 51.13301 -0.31861 3391 ft 202 kts 246°
2026-04-15 10:33 51.12831 -0.34048 3831 ft 222 kts 249°
2026-04-15 10:33 51.12415 -0.36451 4597 ft 227 kts 251°
2026-04-15 10:33 51.12053 -0.38921 5377 ft 231 kts 252°
2026-04-15 10:34 51.11705 -0.41423 6193 ft 233 kts 251°
2026-04-15 10:34 51.11213 -0.43840 6909 ft 234 kts 242°
2026-04-15 10:34 51.10496 -0.46169 7620 ft 235 kts 239°
2026-04-15 10:34 51.09759 -0.48507 8390 ft 237 kts 239°
2026-04-15 10:35 51.09031 -0.50871 9173 ft 239 kts 241°
2026-04-15 10:35 51.08284 -0.53333 9592 ft 258 kts 240°
2026-04-15 10:35 51.07467 -0.55926 10243 ft 264 kts 240°
2026-04-15 10:35 51.06640 -0.58543 11017 ft 266 kts 240°
2026-04-15 10:36 51.05815 -0.61197 11787 ft 270 kts 243°
2026-04-15 10:36 51.05180 -0.64027 12582 ft 275 kts 251°
2026-04-15 10:36 51.04776 -0.67017 13359 ft 278 kts 254°
2026-04-15 10:36 51.04381 -0.70049 14082 ft 281 kts 254°
2026-04-15 10:37 51.03974 -0.73103 14757 ft 284 kts 253°
2026-04-15 10:37 51.03557 -0.76190 15388 ft 288 kts 253°
2026-04-15 10:37 51.03120 -0.79389 15625 ft 307 kts 253°
2026-04-15 10:37 51.02650 -0.82803 15796 ft 326 kts 253°
2026-04-15 10:38 51.02157 -0.86403 16080 ft 339 kts 253°
2026-04-15 10:38 51.01656 -0.90088 16700 ft 343 kts 253°
2026-04-15 10:38 51.01151 -0.93804 17354 ft 346 kts 253°
2026-04-15 10:38 51.00648 -0.97538 18139 ft 345 kts 253°
2026-04-15 10:39 51.00142 -1.01278 18717 ft 348 kts 253°
2026-04-15 10:39 50.99623 -1.05060 19225 ft 352 kts 253°
2026-04-15 10:39 50.99097 -1.08874 19765 ft 355 kts 253°
2026-04-15 10:39 50.98565 -1.12719 20298 ft 358 kts 253°
2026-04-15 10:40 50.98027 -1.16595 20817 ft 361 kts 252°
2026-04-15 10:40 50.97484 -1.20500 21339 ft 364 kts 252°
2026-04-15 10:40 50.96935 -1.24444 21849 ft 368 kts 252°
2026-04-15 10:40 50.96377 -1.28418 22368 ft 370 kts 251°
2026-04-15 10:41 50.95481 -1.32208 22874 ft 366 kts 238°
2026-04-15 10:41 50.94029 -1.35496 23347 ft 364 kts 225°
2026-04-15 10:41 50.92115 -1.38099 23797 ft 364 kts 212°
2026-04-15 10:41 50.89990 -1.40292 24260 ft 365 kts 212°
2026-04-15 10:42 50.87867 -1.42493 24824 ft 364 kts 212°
2026-04-15 10:42 50.85747 -1.44695 25251 ft 366 kts 212°
2026-04-15 10:42 50.83614 -1.46910 25655 ft 368 kts 212°
2026-04-15 10:42 50.81470 -1.49134 26071 ft 369 kts 212°
2026-04-15 10:43 50.79319 -1.51365 26463 ft 371 kts 212°
2026-04-15 10:43 50.77155 -1.53605 26869 ft 373 kts 212°
2026-04-15 10:43 50.74980 -1.55854 27254 ft 374 kts 212°
2026-04-15 10:43 50.72796 -1.58111 27627 ft 376 kts 212°
2026-04-15 10:44 50.70601 -1.60374 28007 ft 378 kts 212°
2026-04-15 10:44 50.68395 -1.62647 28351 ft 380 kts 212°
2026-04-15 10:44 50.66179 -1.64928 28697 ft 381 kts 212°
2026-04-15 10:44 50.63953 -1.67216 29027 ft 383 kts 212°
2026-04-15 10:45 50.61717 -1.69512 29309 ft 385 kts 212°
2026-04-15 10:45 50.59469 -1.71817 29615 ft 386 kts 213°
2026-04-15 10:45 50.57211 -1.74130 29914 ft 388 kts 213°
2026-04-15 10:45 50.54944 -1.76451 30226 ft 390 kts 213°
2026-04-15 10:46 50.52667 -1.78778 30496 ft 391 kts 213°
2026-04-15 10:46 50.50386 -1.81107 30756 ft 393 kts 213°
2026-04-15 10:46 50.48085 -1.83454 31023 ft 394 kts 212°
2026-04-15 10:46 50.45788 -1.85795 31358 ft 395 kts 212°
2026-04-15 10:47 50.43509 -1.88115 31662 ft 395 kts 212°
2026-04-15 10:47 50.41209 -1.90453 32022 ft 393 kts 212°
2026-04-15 10:47 50.38917 -1.92779 32363 ft 392 kts 212°
2026-04-15 10:47 50.36633 -1.95096 32708 ft 391 kts 212°
2026-04-15 10:48 50.34351 -1.97401 33021 ft 390 kts 211°
2026-04-15 10:48 50.31901 -1.99193 33304 ft 391 kts 199°
2026-04-15 10:48 50.29252 -2.00197 33593 ft 392 kts 195°
2026-04-15 10:48 50.26588 -2.01078 33878 ft 391 kts 194°
2026-04-15 10:49 50.23927 -2.01952 34148 ft 390 kts 194°
2026-04-15 10:49 50.21267 -2.02837 34376 ft 390 kts 195°
2026-04-15 10:49 50.18614 -2.03731 34577 ft 390 kts 195°
2026-04-15 10:49 50.15963 -2.04630 34757 ft 390 kts 195°
2026-04-15 10:50 50.13318 -2.05530 34950 ft 390 kts 195°
2026-04-15 10:50 50.08016 -2.07334 35054 ft 389 kts 195°
2026-04-15 10:51 50.02723 -2.09129 35058 ft 389 kts 195°
2026-04-15 10:51 49.97451 -2.10999 35059 ft 388 kts 198°
2026-04-15 10:52 49.92284 -2.13420 35059 ft 388 kts 199°
2026-04-15 10:52 49.87115 -2.15845 35073 ft 388 kts 199°
2026-04-15 10:53 49.81978 -2.18244 35073 ft 388 kts 199°
2026-04-15 10:53 49.76806 -2.20654 35075 ft 388 kts 199°
2026-04-15 10:54 49.71631 -2.23057 35056 ft 388 kts 199°
2026-04-15 10:54 49.67296 -2.25065 35113 ft 388 kts 199°
2026-04-15 10:55 49.62146 -2.27447 35077 ft 389 kts 199°
2026-04-15 10:55 49.56961 -2.29839 35071 ft 389 kts 199°
2026-04-15 10:56 49.51772 -2.32227 35069 ft 389 kts 199°
2026-04-15 10:56 49.46587 -2.34607 35066 ft 389 kts 199°
2026-04-15 10:57 49.41401 -2.36984 35068 ft 389 kts 199°
2026-04-15 10:57 49.33612 -2.40544 35073 ft 389 kts 199°
2026-04-15 10:58 49.28414 -2.42913 35073 ft 390 kts 199°
2026-04-15 10:58 49.23216 -2.45276 35077 ft 390 kts 199°
2026-04-15 10:59 49.18012 -2.47638 35097 ft 390 kts 199°
2026-04-15 10:59 49.12807 -2.49995 35096 ft 390 kts 199°
2026-04-15 11:00 49.07639 -2.52330 35089 ft 389 kts 199°
2026-04-15 11:00 49.02465 -2.54657 35089 ft 383 kts 200°
2026-04-15 11:01 48.97354 -2.56956 35076 ft 385 kts 200°
2026-04-15 11:01 48.92219 -2.59262 35070 ft 384 kts 200°
2026-04-15 11:02 48.87088 -2.61560 35070 ft 384 kts 200°
2026-04-15 11:02 48.81982 -2.63840 35072 ft 379 kts 200°
2026-04-15 11:03 48.76917 -2.66100 35073 ft 380 kts 200°
2026-04-15 11:03 48.71840 -2.68361 35073 ft 380 kts 200°
2026-04-15 11:04 48.66765 -2.70615 35078 ft 380 kts 200°
2026-04-15 11:04 48.61688 -2.72865 35046 ft 380 kts 200°
2026-04-15 11:05 48.56607 -2.75112 35064 ft 381 kts 200°
2026-04-15 11:05 48.51502 -2.77365 35077 ft 383 kts 200°
2026-04-15 11:06 48.46375 -2.79624 35088 ft 384 kts 200°
2026-04-15 11:06 48.41239 -2.81880 35096 ft 384 kts 200°
2026-04-15 11:07 48.36096 -2.84137 35093 ft 388 kts 200°
2026-04-15 11:07 48.30907 -2.86407 35096 ft 388 kts 200°
2026-04-15 11:08 48.25730 -2.88666 35103 ft 387 kts 200°
2026-04-15 11:08 48.20553 -2.90922 35105 ft 388 kts 200°
2026-04-15 11:09 48.15386 -2.93170 35110 ft 392 kts 200°
2026-04-15 11:09 48.10144 -2.95445 35112 ft 390 kts 200°
2026-04-15 11:10 48.04937 -2.97698 35169 ft 390 kts 200°
2026-04-15 11:10 47.99764 -2.99930 35121 ft 385 kts 201°
2026-04-15 11:11 47.94592 -3.02163 35117 ft 389 kts 201°
2026-04-15 11:11 47.89390 -3.04402 35126 ft 388 kts 201°
2026-04-15 11:12 47.84176 -3.06643 35131 ft 394 kts 201°
2026-04-15 11:12 47.78946 -3.08884 35130 ft 391 kts 201°
2026-04-15 11:13 47.73754 -3.11099 35135 ft 389 kts 201°
2026-04-15 11:13 47.68532 -3.13331 35136 ft 390 kts 201°
2026-04-15 11:14 47.63357 -3.15535 35135 ft 390 kts 201°
2026-04-15 11:14 47.58142 -3.17751 35138 ft 390 kts 201°
2026-04-15 11:15 47.52922 -3.19964 35139 ft 391 kts 201°
2026-04-15 11:15 47.47681 -3.22182 35144 ft 391 kts 201°
2026-04-15 11:16 47.42445 -3.24394 35150 ft 391 kts 201°
2026-04-15 11:16 47.37212 -3.26599 35155 ft 391 kts 201°
2026-04-15 11:17 47.31970 -3.28804 35157 ft 393 kts 201°
2026-04-15 11:17 47.26691 -3.31020 35182 ft 394 kts 201°
2026-04-15 11:18 47.21443 -3.33214 35155 ft 391 kts 202°
2026-04-15 11:18 47.16202 -3.35407 35165 ft 392 kts 202°
2026-04-15 11:19 47.10955 -3.37596 35162 ft 393 kts 202°
2026-04-15 11:19 47.05686 -3.39790 35169 ft 393 kts 202°
2026-04-15 11:20 47.00421 -3.41976 35174 ft 393 kts 202°
2026-04-15 11:20 46.95479 -3.44026 35169 ft 393 kts 202°
2026-04-15 11:21 46.90241 -3.46191 35171 ft 395 kts 202°
2026-04-15 11:21 46.84894 -3.48402 35173 ft 397 kts 202°
2026-04-15 11:22 46.79618 -3.50575 35173 ft 397 kts 202°
2026-04-15 11:22 46.74304 -3.52760 35180 ft 397 kts 202°
2026-04-15 11:23 46.68990 -3.54941 35177 ft 397 kts 202°
2026-04-15 11:23 46.63675 -3.57117 35179 ft 397 kts 202°
2026-04-15 11:24 46.58360 -3.59290 35181 ft 397 kts 202°
2026-04-15 11:24 46.53045 -3.61457 35183 ft 397 kts 202°
2026-04-15 11:25 46.47729 -3.63621 35191 ft 397 kts 202°
2026-04-15 11:25 46.42405 -3.65784 35188 ft 397 kts 202°
2026-04-15 11:26 46.37081 -3.67946 35189 ft 397 kts 202°
2026-04-15 11:26 46.31709 -3.69890 35186 ft 401 kts 197°
2026-04-15 11:27 46.26130 -3.70848 35195 ft 410 kts 193°
2026-04-15 11:27 46.20438 -3.71674 35194 ft 408 kts 193°
2026-04-15 11:28 46.14817 -3.72509 35198 ft 409 kts 193°
2026-04-15 11:28 46.09162 -3.73351 35199 ft 409 kts 193°
2026-04-15 11:29 46.03531 -3.74191 35199 ft 410 kts 193°
2026-04-15 11:29 45.97816 -3.75037 35208 ft 410 kts 193°
2026-04-15 11:30 45.92147 -3.75875 35211 ft 409 kts 193°
2026-04-15 11:30 45.86461 -3.76717 35218 ft 412 kts 193°
2026-04-15 11:31 45.80756 -3.77557 35216 ft 412 kts 193°
2026-04-15 11:31 45.75057 -3.78394 35210 ft 412 kts 193°
2026-04-15 11:32 45.69576 -3.79198 35213 ft 413 kts 193°
2026-04-15 11:32 45.63846 -3.80039 35216 ft 414 kts 193°
2026-04-15 11:33 45.58152 -3.80869 35219 ft 414 kts 193°
2026-04-15 11:33 45.52423 -3.81704 35219 ft 414 kts 193°
2026-04-15 11:34 45.46682 -3.82540 35225 ft 415 kts 193°
2026-04-15 11:34 45.40934 -3.83374 35224 ft 415 kts 193°
2026-04-15 11:35 45.35188 -3.84206 35227 ft 415 kts 193°
2026-04-15 11:35 45.29436 -3.85038 35229 ft 417 kts 193°
2026-04-15 11:36 45.23697 -3.85867 35236 ft 417 kts 193°
2026-04-15 11:36 45.17932 -3.86696 35226 ft 416 kts 193°
2026-04-15 11:37 45.12175 -3.87523 35211 ft 416 kts 193°
2026-04-15 11:37 45.06410 -3.88352 35233 ft 417 kts 193°
2026-04-15 11:38 45.00640 -3.89177 35236 ft 417 kts 193°
2026-04-15 11:38 44.94869 -3.90001 35236 ft 417 kts 193°
2026-04-15 11:39 44.89094 -3.90824 35235 ft 418 kts 192°
2026-04-15 11:39 44.83313 -3.91644 35236 ft 417 kts 193°
2026-04-15 11:40 44.77533 -3.92471 35235 ft 418 kts 193°
2026-04-15 11:40 44.71751 -3.93291 35235 ft 417 kts 193°
2026-04-15 11:41 44.65969 -3.94106 35238 ft 418 kts 193°
2026-04-15 11:41 44.60193 -3.94922 35241 ft 418 kts 193°
2026-04-15 11:42 44.54410 -3.95737 35217 ft 418 kts 193°
2026-04-15 11:42 44.48663 -3.96545 35243 ft 418 kts 193°
2026-04-15 11:43 44.42876 -3.97356 35242 ft 418 kts 193°
2026-04-15 11:43 44.37093 -3.98165 35239 ft 418 kts 193°
2026-04-15 11:44 44.31300 -3.98966 35241 ft 418 kts 192°
2026-04-15 11:44 44.25503 -3.99626 35241 ft 419 kts 192°
2026-04-15 11:45 44.19694 -4.00268 35244 ft 419 kts 192°
2026-04-15 11:45 44.14865 -4.00814 35212 ft 418 kts 192°
2026-04-15 11:46 44.09079 -4.01472 35239 ft 417 kts 192°
2026-04-15 11:46 44.03288 -4.02133 35239 ft 417 kts 192°
2026-04-15 11:47 43.97499 -4.02792 35242 ft 417 kts 192°
2026-04-15 11:47 43.91715 -4.03446 35242 ft 416 kts 192°
2026-04-15 11:48 43.85935 -4.04101 35237 ft 417 kts 192°
2026-04-15 11:48 43.80154 -4.04754 35239 ft 417 kts 192°
2026-04-15 11:49 43.74374 -4.05406 35230 ft 416 kts 193°
2026-04-15 11:49 43.68597 -4.06055 35242 ft 416 kts 193°
2026-04-15 11:50 43.62825 -4.06704 35245 ft 417 kts 193°
2026-04-15 11:50 43.57045 -4.07353 35239 ft 417 kts 193°
2026-04-15 11:51 43.51294 -4.07996 35240 ft 418 kts 193°
2026-04-15 11:51 43.45499 -4.08643 35234 ft 417 kts 193°
2026-04-15 11:52 43.39706 -4.09288 35240 ft 417 kts 193°
2026-04-15 11:52 43.33911 -4.09933 35231 ft 419 kts 193°
2026-04-15 11:53 43.28084 -4.10582 35240 ft 420 kts 193°
2026-04-15 11:53 43.22272 -4.11225 35225 ft 419 kts 193°
2026-04-15 11:54 43.16453 -4.11869 35223 ft 420 kts 193°
2026-04-15 11:54 43.10606 -4.12516 35221 ft 424 kts 192°
2026-04-15 11:55 43.04735 -4.13158 35218 ft 421 kts 192°
2026-04-15 11:55 42.98889 -4.13806 35214 ft 422 kts 192°
2026-04-15 11:56 42.93029 -4.14451 35205 ft 423 kts 192°
2026-04-15 11:56 42.87180 -4.15094 35211 ft 424 kts 192°
2026-04-15 11:57 42.78359 -4.16056 35214 ft 424 kts 192°
2026-04-15 11:58 42.72477 -4.16698 35213 ft 424 kts 192°
2026-04-15 11:58 42.66593 -4.17338 35206 ft 424 kts 192°
2026-04-15 11:59 42.60712 -4.17977 35216 ft 424 kts 192°
2026-04-15 11:59 42.54833 -4.18615 35214 ft 424 kts 192°
2026-04-15 12:00 42.48932 -4.19256 35219 ft 427 kts 192°
2026-04-15 12:00 42.43015 -4.19893 35223 ft 426 kts 192°
2026-04-15 12:01 42.37098 -4.20531 35226 ft 427 kts 192°
2026-04-15 12:01 42.31175 -4.21169 35222 ft 428 kts 192°
2026-04-15 12:02 42.25227 -4.21809 35227 ft 429 kts 192°
2026-04-15 12:02 42.19276 -4.22446 35230 ft 429 kts 192°
2026-04-15 12:03 42.13330 -4.23082 35230 ft 429 kts 192°
2026-04-15 12:03 42.07361 -4.23722 35232 ft 432 kts 192°
2026-04-15 12:04 42.01375 -4.24359 35235 ft 431 kts 192°
2026-04-15 12:04 41.95436 -4.24991 35237 ft 431 kts 192°
2026-04-15 12:05 41.89453 -4.25627 35231 ft 432 kts 192°
2026-04-15 12:05 41.83440 -4.26266 35241 ft 433 kts 191°
2026-04-15 12:06 41.77440 -4.26899 35243 ft 433 kts 192°
2026-04-15 12:06 41.71432 -4.27534 35243 ft 433 kts 192°
2026-04-15 12:07 41.65413 -4.28170 35245 ft 435 kts 191°
2026-04-15 12:07 41.59376 -4.28805 35246 ft 435 kts 191°
2026-04-15 12:08 41.53344 -4.29438 35245 ft 435 kts 191°
2026-04-15 12:08 41.47314 -4.30070 35228 ft 435 kts 191°
2026-04-15 12:09 41.41252 -4.30707 35253 ft 437 kts 191°
2026-04-15 12:09 41.35233 -4.31334 35246 ft 437 kts 191°
2026-04-15 12:10 41.29172 -4.31966 35247 ft 437 kts 191°
2026-04-15 12:10 41.23108 -4.32598 35244 ft 438 kts 191°
2026-04-15 12:11 41.17026 -4.33229 35238 ft 438 kts 191°
2026-04-15 12:11 41.10956 -4.33858 35240 ft 438 kts 191°
2026-04-15 12:12 41.04879 -4.34486 35214 ft 438 kts 191°
2026-04-15 12:12 40.98778 -4.35119 35234 ft 440 kts 190°
2026-04-15 12:13 40.92675 -4.35747 35233 ft 440 kts 190°
2026-04-15 12:13 40.86571 -4.36375 35231 ft 440 kts 190°
2026-04-15 12:14 40.80466 -4.37003 35224 ft 441 kts 190°
2026-04-15 12:14 40.74335 -4.37631 35227 ft 441 kts 190°
2026-04-15 12:15 40.68254 -4.38253 35229 ft 441 kts 190°
2026-04-15 12:15 40.62137 -4.38878 35225 ft 441 kts 190°
2026-04-15 12:16 40.56016 -4.39501 35221 ft 441 kts 190°
2026-04-15 12:16 40.49898 -4.40124 35219 ft 441 kts 190°
2026-04-15 12:17 40.43772 -4.40747 35214 ft 441 kts 190°
2026-04-15 12:17 40.37649 -4.41368 35202 ft 442 kts 190°
2026-04-15 12:18 40.31502 -4.41991 35212 ft 443 kts 190°
2026-04-15 12:18 40.25352 -4.42611 35211 ft 443 kts 190°
2026-04-15 12:19 40.19205 -4.43229 35211 ft 443 kts 190°
2026-04-15 12:19 40.13048 -4.43850 35213 ft 444 kts 189°
2026-04-15 12:20 40.06926 -4.44466 35215 ft 444 kts 189°
2026-04-15 12:20 40.00770 -4.45083 35216 ft 444 kts 189°
2026-04-15 12:21 39.94611 -4.45700 35211 ft 444 kts 189°
2026-04-15 12:21 39.88444 -4.46317 35211 ft 445 kts 189°
2026-04-15 12:22 39.82284 -4.46930 35222 ft 444 kts 189°
2026-04-15 12:22 39.76116 -4.47544 35224 ft 445 kts 189°
2026-04-15 12:23 39.69948 -4.48157 35224 ft 444 kts 189°
2026-04-15 12:23 39.63777 -4.48770 35222 ft 445 kts 189°
2026-04-15 12:24 39.57607 -4.49381 35224 ft 445 kts 189°
2026-04-15 12:24 39.51434 -4.49991 35222 ft 445 kts 189°
2026-04-15 12:25 39.45306 -4.50596 35225 ft 445 kts 189°
2026-04-15 12:25 39.39131 -4.51204 35226 ft 445 kts 189°
2026-04-15 12:26 39.32958 -4.51811 35225 ft 445 kts 189°
2026-04-15 12:26 39.26793 -4.52416 35231 ft 445 kts 189°
2026-04-15 12:27 39.20612 -4.53022 35229 ft 446 kts 189°
2026-04-15 12:27 39.14429 -4.53626 35229 ft 445 kts 189°
2026-04-15 12:28 39.08244 -4.54230 35233 ft 446 kts 189°
2026-04-15 12:28 39.02061 -4.54833 35220 ft 447 kts 189°
2026-04-15 12:29 38.95834 -4.55441 35234 ft 448 kts 189°
2026-04-15 12:29 38.89694 -4.56480 35233 ft 445 kts 194°
2026-04-15 12:30 38.83592 -4.57768 35230 ft 443 kts 194°
2026-04-15 12:30 38.77521 -4.59037 35233 ft 444 kts 194°
2026-04-15 12:31 38.71419 -4.60307 35233 ft 444 kts 194°
2026-04-15 12:31 38.65323 -4.61572 35231 ft 444 kts 194°
2026-04-15 12:32 38.59228 -4.62835 35233 ft 444 kts 194°
2026-04-15 12:32 38.53126 -4.64098 35228 ft 445 kts 193°
2026-04-15 12:33 38.47015 -4.65360 35233 ft 445 kts 193°
2026-04-15 12:33 38.40905 -4.66619 35233 ft 445 kts 193°
2026-04-15 12:34 38.34792 -4.67877 35227 ft 445 kts 193°
2026-04-15 12:34 38.28679 -4.69133 35228 ft 445 kts 193°
2026-04-15 12:35 38.22607 -4.70378 35224 ft 445 kts 193°
2026-04-15 12:35 38.16496 -4.71629 35220 ft 445 kts 193°
2026-04-15 12:36 38.10383 -4.72879 35225 ft 445 kts 193°
2026-04-15 12:36 38.04285 -4.74124 35101 ft 443 kts 193°
2026-04-15 12:36 38.01704 -4.74649 34756 ft 441 kts 193°
2026-04-15 12:37 37.98676 -4.75267 34136 ft 442 kts 193°
2026-04-15 12:37 37.96620 -4.75686 33569 ft 443 kts 193°
2026-04-15 12:37 37.93607 -4.76299 32759 ft 445 kts 193°
2026-04-15 12:37 37.90541 -4.76922 31955 ft 447 kts 193°
2026-04-15 12:38 37.87462 -4.77548 31142 ft 449 kts 193°
2026-04-15 12:38 37.84370 -4.78176 30349 ft 451 kts 192°
2026-04-15 12:38 37.81274 -4.78803 29623 ft 449 kts 192°
2026-04-15 12:38 37.78210 -4.79422 29008 ft 445 kts 192°
2026-04-15 12:39 37.75161 -4.80037 28365 ft 441 kts 192°
2026-04-15 12:39 37.72142 -4.80647 27737 ft 438 kts 192°
2026-04-15 12:39 37.69144 -4.81252 27127 ft 435 kts 192°
2026-04-15 12:39 37.66174 -4.81852 26526 ft 432 kts 192°
2026-04-15 12:40 37.63217 -4.82448 25934 ft 429 kts 192°
2026-04-15 12:40 37.60292 -4.83037 25603 ft 420 kts 192°
2026-04-15 12:40 37.57403 -4.83619 25505 ft 425 kts 192°
2026-04-15 12:40 37.54456 -4.84215 25409 ft 429 kts 192°
2026-04-15 12:41 37.51522 -4.84805 25313 ft 427 kts 192°
2026-04-15 12:41 37.48593 -4.85393 25228 ft 426 kts 192°
2026-04-15 12:41 37.45671 -4.85980 25213 ft 426 kts 192°
2026-04-15 12:41 37.42742 -4.86567 25215 ft 426 kts 192°
2026-04-15 12:42 37.39813 -4.87154 25212 ft 426 kts 192°
2026-04-15 12:42 37.36885 -4.87741 25203 ft 426 kts 192°
2026-04-15 12:42 37.33959 -4.88326 25213 ft 426 kts 192°
2026-04-15 12:42 37.31036 -4.88910 25179 ft 424 kts 192°
2026-04-15 12:43 37.28128 -4.89491 24902 ft 422 kts 192°
2026-04-15 12:43 37.25229 -4.90069 24437 ft 421 kts 192°
2026-04-15 12:43 37.22346 -4.90644 23904 ft 419 kts 192°
2026-04-15 12:43 37.19510 -4.91210 23290 ft 417 kts 192°
2026-04-15 12:44 37.16654 -4.91778 22696 ft 414 kts 192°
2026-04-15 12:44 37.13819 -4.92342 22096 ft 411 kts 192°
2026-04-15 12:44 37.11003 -4.92903 21501 ft 409 kts 191°
2026-04-15 12:44 37.08162 -4.93468 20915 ft 406 kts 191°
2026-04-15 12:45 37.05367 -4.93885 20335 ft 405 kts 185°
2026-04-15 12:45 37.02588 -4.93863 19771 ft 404 kts 179°
2026-04-15 12:45 36.99784 -4.93702 19215 ft 402 kts 179°
2026-04-15 12:45 36.96996 -4.93552 18688 ft 400 kts 179°
2026-04-15 12:46 36.94223 -4.93407 18100 ft 398 kts 179°
2026-04-15 12:46 36.91463 -4.93265 17557 ft 394 kts 179°
2026-04-15 12:46 36.88733 -4.93124 16971 ft 392 kts 179°
2026-04-15 12:46 36.86019 -4.92985 16489 ft 388 kts 178°
2026-04-15 12:47 36.83329 -4.92848 15940 ft 386 kts 178°
2026-04-15 12:47 36.80656 -4.92710 15399 ft 384 kts 178°
2026-04-15 12:47 36.77995 -4.92574 14890 ft 382 kts 178°
2026-04-15 12:47 36.75349 -4.92438 14363 ft 380 kts 178°
2026-04-15 12:48 36.72714 -4.92303 13834 ft 378 kts 178°
2026-04-15 12:48 36.70104 -4.92168 13361 ft 373 kts 178°
2026-04-15 12:48 36.67520 -4.92035 12894 ft 370 kts 178°
2026-04-15 12:48 36.64962 -4.91903 12415 ft 366 kts 178°
2026-04-15 12:49 36.62426 -4.91775 11897 ft 363 kts 177°
2026-04-15 12:49 36.59915 -4.91644 11421 ft 359 kts 177°
2026-04-15 12:49 36.57424 -4.91515 10959 ft 357 kts 177°
2026-04-15 12:49 36.54953 -4.91389 10623 ft 351 kts 178°
2026-04-15 12:50 36.52562 -4.91268 10488 ft 338 kts 178°
2026-04-15 12:50 36.50249 -4.91150 10379 ft 325 kts 177°
2026-04-15 12:50 36.48033 -4.91037 10218 ft 314 kts 177°
2026-04-15 12:50 36.45863 -4.90925 9848 ft 311 kts 177°
2026-04-15 12:51 36.43701 -4.90814 9388 ft 311 kts 177°
2026-04-15 12:51 36.41537 -4.90703 8930 ft 310 kts 177°
2026-04-15 12:51 36.39381 -4.90593 8481 ft 310 kts 177°
2026-04-15 12:51 36.37232 -4.90483 8034 ft 309 kts 177°
2026-04-15 12:52 36.35086 -4.90374 7603 ft 308 kts 177°
2026-04-15 12:52 36.32951 -4.90265 7156 ft 305 kts 177°
2026-04-15 12:52 36.30864 -4.90159 6718 ft 296 kts 177°
2026-04-15 12:52 36.28835 -4.90056 6277 ft 288 kts 177°
2026-04-15 12:53 36.26858 -4.89954 5821 ft 281 kts 177°
2026-04-15 12:53 36.24927 -4.89854 5393 ft 274 kts 177°
2026-04-15 12:53 36.23089 -4.89763 5277 ft 255 kts 178°
2026-04-15 12:53 36.21440 -4.90110 5159 ft 237 kts 206°
2026-04-15 12:54 36.20093 -4.91221 5081 ft 234 kts 219°
2026-04-15 12:54 36.19096 -4.92782 5083 ft 228 kts 244°
2026-04-15 12:54 36.18423 -4.94488 5075 ft 210 kts 245°
2026-04-15 12:54 36.17879 -4.96184 5083 ft 216 kts 260°
2026-04-15 12:55 36.17580 -4.98008 5093 ft 215 kts 260°
2026-04-15 12:55 36.17292 -4.99768 5081 ft 198 kts 260°
2026-04-15 12:55 36.17072 -5.01331 5073 ft 176 kts 265°
2026-04-15 12:55 36.16943 -5.02849 5083 ft 180 kts 266°
2026-04-15 12:56 36.16811 -5.04383 5078 ft 179 kts 265°
2026-04-15 12:56 36.16665 -5.05902 5014 ft 176 kts 265°
2026-04-15 12:56 36.16521 -5.07393 4697 ft 174 kts 265°
2026-04-15 12:56 36.16382 -5.08879 4321 ft 171 kts 266°
2026-04-15 12:57 36.16258 -5.10350 4233 ft 175 kts 266°
2026-04-15 12:57 36.16134 -5.11847 4135 ft 175 kts 267°
2026-04-15 12:57 36.16026 -5.13337 4081 ft 173 kts 267°
2026-04-15 12:57 36.15918 -5.14826 4080 ft 174 kts 267°
2026-04-15 12:58 36.15812 -5.16320 4079 ft 174 kts 268°
2026-04-15 12:58 36.15733 -5.17800 4024 ft 167 kts 269°
2026-04-15 12:58 36.15697 -5.19172 3976 ft 156 kts 271°
2026-04-15 12:58 36.15672 -5.20534 4001 ft 159 kts 271°
2026-04-15 12:59 36.15593 -5.23271 3866 ft 160 kts 268°
2026-04-15 12:59 36.15507 -5.24635 3652 ft 158 kts 268°
2026-04-15 12:59 36.15434 -5.25983 3456 ft 156 kts 269°
2026-04-15 13:00 36.15376 -5.27325 3190 ft 157 kts 268°
2026-04-15 13:00 36.15308 -5.28668 2815 ft 156 kts 269°
2026-04-15 13:00 36.15259 -5.30016 2332 ft 158 kts 269°
2026-04-15 13:00 36.15218 -5.31393 1761 ft 162 kts 269°
2026-04-15 13:01 36.15219 -5.32818 912 ft 176 kts 269°
2026-04-15 13:01 36.15150 -5.34390 85 ft 185 kts 261°
2026-04-15 13:01 36.15085 -5.35655 21 ft 95 kts 268°
2026-04-15 13:01 36.15042 -5.36010 15 ft 1 kts 236°
2026-04-15 13:02 36.15051 -5.35990 16 ft 0 kts 250°
2026-04-15 13:02 36.15052 -5.35986 17 ft 2 kts 250°
2026-04-15 13:03 36.15048 -5.35936 18 ft 1 kts 326°
2026-04-15 13:03 36.15059 -5.35946 18 ft 10 kts 324°
2026-04-15 13:03 36.15120 -5.35943 17 ft 4 kts 68°
2026-04-15 13:03 36.15116 -5.35913 16 ft 5 kts 97°
2026-04-15 13:04 36.15109 -5.35839 17 ft 13 kts 96°
2026-04-15 13:04 36.15098 -5.35713 19 ft 16 kts 92°
2026-04-15 13:04 36.15105 -5.35543 24 ft 30 kts 87°
2026-04-15 13:04 36.15306 -5.34628 17 ft 0 kts 359°